Location: Newark
(25.6108°S, 54.5803°W)
Time: 03:06:56
(UTC+00:00)

Tiros 1 - Pass Details

Date: 27 October 2020
Orbit: 630 x 664 km, 48.4° (Epoch: 26 November)

Event Time Altitude Azimuth Distance (km) Brightness Sun altitude
Rises 01:32:31 0° 214° (SW) 3,011 11.4 -43.1°
Enters shadow 01:34:36 - 205° (SSW) 2,287 10.6 -43.4°
Reaches altitude 10° 01:35:12 10° 202° (SSW) 2,090 - -43.5°
Maximum altitude 01:39:18 27° 144° (SE) 1,267 - -44.1°
Drops below altitude 10° 01:43:21 10° 85° (E) 2,061 - -44.6°
Sets 01:45:58 0° 73° (ENE) 2,960 - -44.9°
